Weather History for KDAN - March, 2014

Change the Weather History Date:

Sunday, March 30, 2014

  Actual Average Record
Temperature  
Mean Temperature 47 °F 53 °F  
Max Temperature 53 °F 64 °F 88 °F (1985)
Min Temperature 40 °F 42 °F 23 °F (1964)
Degree Days  
Heating Degree Days 18 12  
Month to date heating degree days 635 498  
Since 1 July heating degree days 3640 3499  
Cooling Degree Days 0 0  
Month to date cooling degree days 0 0  
Year to date cooling degree days 0 0  
Moisture  
Dew Point 31 °F    
Average Humidity 53    
Maximum Humidity 66    
Minimum Humidity 39    
Precipitation  
Precipitation 0.04 in 0.17 in 3.15 in (1991)
Month to date precipitation 3.20 3.96  
Year to date precipitation 8.32 10.39  
Snow  
Snow 0.00 in - - ()
Month to date snowfall 5.5  
Since 1 July snowfall 13.4  
Snow Depth 0.00 in    
Sea Level Pressure  
Sea Level Pressure 29.77 in    
Wind  
Wind Speed 15 mph (NW)    
Max Wind Speed 30 mph    
Max Gust Speed 41 mph    
Visibility 10 miles    
Events Rain    
T = Trace of Precipitation, MM = Missing Value Source: NWS Daily Summary

Daily Weather History Graph

Daily Weather History Graph

Search for Another Location

Airport or City:

Trip Planner

Search our weather history database for the weather conditions in past years. The results will help you decide how hot, cold, wet, or windy it might be!

Date:

Astronomy

Mar. 30, 2014 Rise Set
Actual Time 7:06 AM EDT 7:37 PM EDT
Civil Twilight 6:40 AM EDT 8:03 PM EDT
Nautical Twilight 6:09 AM EDT 8:34 PM EDT
Astronomical Twilight 5:38 AM EDT 9:05 PM EDT
Moon 6:50 AM EDT (3/30) 7:47 PM EDT (3/30)
Length of Visible Light 13h 23m
Length of Day
12h 31m
Waning Crescent, 0% of the Moon is Illuminated
Mar 30
Waning Crescent
Mar 30
New
Apr 7
First Quarter
Apr 15
Full
Apr 22
Last Quarter

Hourly Weather History & Observations

Time (EDT) Temp. Windchill Dew Point Humidity Pressure Visibility Wind Dir Wind Speed Gust Speed Precip Events Conditions
12:53 AM 54.0 °F - 45.0 °F 72% 29.59 in 10.0 mi WNW 19.6 mph 27.6 mph 0.01 in   Overcast
1:53 AM 48.0 °F - 37.9 °F 68% 29.61 in 10.0 mi WNW 21.9 mph 29.9 mph 0.01 in   Overcast
2:53 AM 45.0 °F 38.5 °F 36.0 °F 71% 29.63 in 10.0 mi WNW 13.8 mph 23.0 mph 0.00 in Rain Light Rain
3:53 AM 44.1 °F 37.4 °F 33.1 °F 65% 29.61 in 10.0 mi West 13.8 mph 19.6 mph 0.01 in   Mostly Cloudy
4:53 AM 42.1 °F 35.2 °F 30.9 °F 65% 29.62 in 10.0 mi WNW 12.7 mph - N/A   Partly Cloudy
5:53 AM 42.1 °F 37.1 °F 30.0 °F 62% 29.64 in 10.0 mi WNW 8.1 mph - N/A   Overcast
6:53 AM 42.1 °F 37.1 °F 30.0 °F 62% 29.67 in 10.0 mi WNW 8.1 mph - N/A   Overcast
7:53 AM 41.0 °F 34.7 °F 30.9 °F 67% 29.70 in 10.0 mi WNW 10.4 mph 19.6 mph 0.00 in   Overcast
8:53 AM 42.1 °F 34.9 °F 28.9 °F 60% 29.73 in 10.0 mi NNW 13.8 mph 26.5 mph 0.01 in   Overcast
9:53 AM 41.0 °F 33.1 °F 30.0 °F 65% 29.76 in 10.0 mi NW 15.0 mph 24.2 mph 0.00 in   Overcast
10:53 AM 44.1 °F 35.7 °F 30.0 °F 58% 29.78 in 10.0 mi NW 20.7 mph 26.5 mph 0.00 in   Overcast
11:53 AM 45.0 °F 38.5 °F 32.0 °F 60% 29.79 in 10.0 mi NNW 13.8 mph 32.2 mph 0.01 in   Overcast
12:53 PM 46.9 °F - 30.9 °F 54% 29.79 in 10.0 mi NW 18.4 mph 33.4 mph N/A   Overcast
1:53 PM 48.0 °F - 30.9 °F 52% 29.79 in 10.0 mi NNW 23.0 mph 32.2 mph N/A   Overcast
2:53 PM 50.0 °F - 30.9 °F 48% 29.78 in 10.0 mi NNW 19.6 mph 25.3 mph N/A   Overcast
3:53 PM 51.1 °F - 32.0 °F 48% 29.80 in 10.0 mi NW 25.3 mph 33.4 mph N/A   Partly Cloudy
4:53 PM 51.1 °F - 32.0 °F 48% 29.82 in 10.0 mi NW 20.7 mph 32.2 mph N/A   Overcast
5:53 PM 50.0 °F - 30.0 °F 46% 29.85 in 10.0 mi NNW 20.7 mph 29.9 mph N/A   Clear
6:53 PM 50.0 °F - 28.9 °F 44% 29.88 in 10.0 mi NW 15.0 mph 23.0 mph N/A   Clear
7:53 PM 50.0 °F - 28.0 °F 43% 29.88 in 10.0 mi NW 16.1 mph 26.5 mph N/A   Clear
8:53 PM 48.9 °F - 28.0 °F 44% 29.90 in 10.0 mi West 6.9 mph - N/A   Clear
9:53 PM 46.9 °F - 28.9 °F 50% 29.92 in 10.0 mi West 6.9 mph - N/A   Clear
10:53 PM 46.0 °F 43.9 °F 28.9 °F 51% 29.93 in 10.0 mi WNW 4.6 mph - N/A   Clear
11:53 PM 48.0 °F - 25.0 °F 41% 29.94 in 10.0 mi NW 12.7 mph - N/A   Clear